Weather Service Report


868 
ASUS44 KJAN 100310
RWRMS 

MISSISSIPPI HOURLY WEATHER ROUNDUP
NATIONAL WEATHER SERVICE JACKSON MS
900 PM CST FRI DEC 09 2016

NOTE: "FAIR: INDICATES FEW OR NO CLOUDS BELOW 12,000 FEET WITH NO
SIGNIFICANT WEATHER AND/OR OBSTRUCTIONS TO VISIBILITY.

MSZ001>002-007>008-010>013-018>021-025>028-034>036-100400-
NORTHWEST MISSISSIPPI
  
CITY           SKY/WX    TMP DP  RH WIND       PRES   REMARKS
CLEVELAND      FAIR      31  29  95 N7        30.59S WCI  24          
GREENWOOD      CLEAR     28  21  75 N5        30.58R WCI  23          
GREENVILLE     CLEAR     31  23  72 NE8       30.58R WCI  23          
OXFORD         FAIR      25  19  80 CALM      30.59R                  
WINONA         FAIR      27  24  87 CALM      30.56R                  
$$

MSZ003>006-009-014>017-022>024-029>033-037>039-100400-
NORTHEAST MISSISSIPPI
  
CITY           SKY/WX    TMP DP  RH WIND       PRES   REMARKS
COLUMBUS AFB   CLEAR     26  22  87 CALM      30.56R                  
GOLDN TRIANGLE CLEAR     30  18  59 N3        30.52S                  
STARKVILLE     FAIR      28  23  80 CALM      30.57S                  
TUPELO         CLEAR     27  18  69 NW5       30.57R WCI  22          
$$

MSZ040-058-100400-
CENTRAL MISSISSIPPI
  
CITY           SKY/WX    TMP DP  RH WIND       PRES   REMARKS
JACKSON INTL   CLEAR     32  24  72 N7        30.55R WCI  26          
JACKSON HAWKNS   N/A    N/A N/A N/A MISG        N/A                   
MADISON        FAIR      32  23  69 N3        30.56R                  
MERIDIAN KEY   CLEAR     30  21  69 N5        30.54R WCI  25          
MERIDIAN NAS   CLEAR     34  17  50 N8        30.55R WCI  27          
VICKSBURG VKS  CLEAR     34  25  69 NE5       30.57S WCI  30          
$$

MSZ059>079-100400-
SOUTH MISSISSIPPI
  
CITY           SKY/WX    TMP DP  RH WIND       PRES   REMARKS
BROOKHAVEN     FAIR     N/A N/A N/A CALM      30.54R                  
COLUMBIA       FAIR      30  25  80 CALM      30.56R                  
HATTIESBURG    CLEAR     33  25  72 CALM      30.54R                  
LAUREL         FAIR      33  20  57 N3        30.53R                  
MCCOMB         CLEAR     37  18  46 N7        30.52S WCI  32          
NATCHEZ        CLEAR     30  25  80 NE5       30.54S WCI  25          
PINE BELT      CLEAR     34  18  51 N5        30.54R WCI  30          
$$

MSZ080>082-100400-
COASTAL MISSISSIPPI
  
CITY           SKY/WX    TMP DP  RH WIND       PRES   REMARKS
BAY ST LOUIS   CLEAR     39  18  41 NE6       30.51S WCI  35          
BILOXI         CLEAR     40  24  51 N8        30.49S                  
PASCAGOULA     CLEAR     34  25  69 N7        30.49F WCI  28          
GULFPORT       CLEAR     40  23  50 N7        30.50R                  
$$

LAZ007>009-015>016-023>026-100400-
NORTHEAST LOUISIANA
  
CITY           SKY/WX    TMP DP  RH WIND       PRES   REMARKS
BASTROP        FAIR      28  27  94 CALM      30.59S                  
TALLULAH/VBURG CLEAR     30  24  78 N7        30.58R WCI  23          
VIDALIA        FAIR      35  26  69 N6        30.59S WCI  30          
$$
  

Return to Home page


Western Regional Climate Center, wrcc@dri.edu